Regional Weather Roundup
Issued by NWS

Home | Current Version | Previous Version | Text Only | Print | Product List | Glossary Off
Versions: 1 2 3 4 5 6 7 8 9 10 11 12 13 14 15 16 17 18 19 20 21 22 23 24 25 26 27 28 29 30 31 32 33 34 35 36 37 38 39 40 41 42 43 44 45 46 47 48 49 50

000
ASUS43 KMKX 250121
RWRWI

WISCONSIN REGIONAL WEATHER ROUNDUP
NATIONAL WEATHER SERVICE MILWAUKEE/SULLIVAN WI
800 PM CDT SAT SEP 24 2016

NOTE: "FAIR" INDICATES FEW OR NO CLOUDS BELOW 12,000 FEET WITH NO
SIGNIFICANT WEATHER AND/OR OBSTRUCTIONS TO VISIBILITY.

WIZ001-002-006>008-014>016-023>028-250200-
NORTHWEST WISCONSIN

CITY           SKY/WX    TMP DP  RH WIND       PRES   REMARKS
SUPERIOR ARPT  CLOUDY    58  57  95 NE12      30.07R
ASHLAND        PTCLDY    63  61  93 MISG      30.10F
HAYWARD        CLOUDY    65  58  78 VRB7      30.10S
SIREN          CLOUDY    65  60  83 SE15G21   30.05S
CUMBERLAND     CLOUDY    63  59  88 SE10G16   30.09R
RICE LAKE      CLOUDY    65  60  83 SE14      30.11R
CHETEK         NOT AVBL
LADYSMITH      CLOUDY    65  58  76 SE7       30.15R
EAU CLAIRE     CLOUDY    65  60  84 SE13      30.10R
MENOMONIE      CLOUDY    65  61  86 E10       30.09R
NEW RICHMOND   CLOUDY    65  60  85 SE12G17   30.05S
OSCEOLA        CLOUDY    66  66 100 SE10      30.06S
$$

WIZ003>005-009-010-017-018-250200-
NORTH CENTRAL WISCONSIN

CITY           SKY/WX    TMP DP  RH WIND       PRES   REMARKS
MANITOWISH WTR NOT AVBL
ARBOR VITAE    MOCLDY    62  55  76 SE5       30.16F
WOODRUFF       MOCLDY    62  55  76 SE5       30.16F
RHINELANDER    CLEAR     56  53  90 E6        30.18R
EAGLE RIVER    CLOUDY    60  49  67 CALM      30.18S
LAND O LAKES   CLOUDY    61  50  65 S6        30.20R
PHILLIPS       CLOUDY    61  55  82 CALM      30.14S
TOMAHAWK       CLEAR     57  54  88 CALM      30.16F
MEDFORD        CLOUDY    61  57  85 SE5       30.14S
MERRILL        CLOUDY    61  55  80 SE6       30.17S
$$

WIZ029-030-035-036-043>047-250200-
CENTRAL WISCONSIN

CITY           SKY/WX    TMP DP  RH WIND       PRES   REMARKS
WAUSAU         CLOUDY    63  53  70 SE9       30.15R
MOSINEE        MOCLDY    61  57  88 E6        30.17R
MARSHFIELD     PTCLDY    63  56  78 SE7       30.14R
STEVENS POINT  CLOUDY    61  55  82 E6        30.17R
WAUPACA        CLOUDY    64  58  81 E5        30.18R
WAUTOMA        CLOUDY    64  59  83 E3        30.17R
WISC RAPIDS    LGT RAIN  64  59  83 E8        30.16R
CAMP DOUGLAS   CLEAR     61  60  96 SE3       30.13R
$$

WIZ011>013-019>022-031-037>040-048>050-250200-
NORTHEAST WISCONSIN

CITY           SKY/WX    TMP DP  RH WIND       PRES   REMARKS
ANTIGO         CLOUDY    58  53  83 CALM      30.19S
SHAWANO        CLOUDY    62  54  74 E5        30.19R
OCONTO         NOT AVBL
STURGEON BAY   CLEAR     58  53  84 CALM      30.20R
GREEN BAY      PTCLDY    60  55  83 E6        30.19R
MANITOWOC      CLEAR     60  54  80 MISG      30.19R
APPLETON       PTCLDY    61  52  72 E6        30.17R
CLINTONVILLE   NOT AVBL
OSHKOSH        PTCLDY    62  56  80 SE7       30.16R
$$

WIZ032>034-041-042-053>061-250200-
SOUTHWEST WISCONSIN

CITY           SKY/WX    TMP DP  RH WIND       PRES   REMARKS
LA CROSSE      CLOUDY    70  63  78 SE7       30.09R
SPARTA         CLOUDY    65  62  89 E6        30.12R
VIROQUA        MOCLDY    64  62  93 E7        30.11R
BOSCOBEL       CLEAR     67  64  90 NE3       30.09R
PRAIRIE DU CHI CLEAR     68  64  86 CALM      30.06R
PLATTEVILLE    CLEAR     68  66  95 E8        30.09R
$$

WIZ056-057-062-063-064-067-068-250200-
SOUTH CENTRAL WISCONSIN

CITY           SKY/WX    TMP DP  RH WIND       PRES   REMARKS
REEDSBURG      NOT AVBL
BARABOO/DELLS  PTCLDY    64  60  88 E5        30.14R
LONE ROCK      CLEAR     64  61  90 E6        30.11R
MINERAL POINT  CLEAR     68  64  88 E8        30.10S
MADISON        MOCLDY    65  61  87 E7        30.14R
MIDDLETON      MOCLDY    68  62  81 SE9       30.13R
WATERTOWN      MOCLDY    62  62 100 E3        30.14S
MONROE         CLEAR     64  63  94 E6        30.11S
JANESVILLE     CLEAR     66  64  94 E6        30.12S
$$

WIZ051-052-058>065-066-070>072-250200-
SOUTHEAST WISCONSIN

CITY           SKY/WX    TMP DP  RH WIND       PRES   REMARKS
MILWAUKEE      MOCLDY    67  60  78 E7        30.15R
WAUKESHA       PTCLDY    61  57  88 E6        30.17R
MILWAUKEE/TIMM CLOUDY    64  55  72 E3        30.17R
RACINE         CLOUDY    68  60  75 E8        30.16R
BURLINGTON     CLEAR     62  59  90 NE3       30.15R
KENOSHA        CLOUDY    65  61  87 E7        30.15R
FOND DU LAC    CLOUDY    63  57  81 SE9       30.16R
SHEBOYGAN      CLOUDY    60  56  86 NE5       30.17S
WEST BEND      CLOUDY    61  55  82 E5        30.17R
JUNEAU         CLEAR     61  58  90 E8        30.16R
$$

LSZ147-162-250200-
LAKE SUPERIOR

STATION/POSITION TIME  TEMP    WIND        PRES    WAVE
                       AIR SEA DIR/SP/G            HT/PER
                 (UTC) (F)     (DEG/KT/KT) (MB)    (FT/S)
W MID LAKE BUOY  0050   65 63  110/ 12/ 14 1019.9R   2/ 4
DEVILS ISLAND    0100   63      70/ 11/ 12 1019.4F
SAXON HARBOR     0000   65     170/  2/  3 1019.3R
$$

LMZ867-665-643>646-250200-
LAKE MICHIGAN

STATION/POSITION TIME  TEMP    WIND        PRES    WAVE
                       AIR SEA DIR/SP/G            HT/PER
                 (UTC) (F)     (DEG/KT/KT) (MB)    (FT/S)
CHAMBERS ISLAND  0000   62      90/  5/  8 1021.7F
S GREEN BAY BUOY 0100   63 66  120/  4/  6 1021.9R
N MID LAKE BUOY  0050   64 67  110/ 14/ 16 1021.9S   2/ 3
NORTHPORT PIER   0000   64     100/ 10/ 12 1022.0F
KEWAUNEE LAKESHO 0000   62     100/  6/  8 1021.2F
SHEBOYGAN LAKESH 0100   65     130/  6/  7 1021.3R
PORT WASHINGTON  0040   62      40/  3/  4 1021.7F
ATWATER BUOY     0100   65 62  100/  6/  8 1021.1R
MILWAUKEE LAKESH 0110   64      80/  5/  5   N/A
S MID LAKE BUOY  0050   70 72  100/ 14/ 17 1020.1F   2/ 3
KENOSHA   LAKESH 0100   68     100/ 10/ 11 1020.3R
$$

TC  - TEMPERATURE IN CELSIUS
VSB - VISIBILITY IN STATUTE MILES
WCI - WIND CHILL INDEX
HX  - HEAT INDEX




USA.gov is the U.S. government's official web portal to all federal, state and local government web resources and services.